De Queen, AR

11:28 AM CST on January 18, 2020 (GMT -0600)
Helms Sevier County

Weather History for KDEQ - October, 2019

Change the Weather History Date:

Tuesday, October 29, 2019

  Actual Average Record
Temperature  
Mean Temperature 59 °F 59 °F  
Max Temperature 63 °F 72 °F 89 °F (1961)
Min Temperature 55 °F 46 °F 20 °F (1952)
Degree Days  
Heating Degree Days 6 7  
Month to date heating degree days 136 111  
Since 1 July heating degree days 136 120  
Cooling Degree Days 0 1  
Month to date cooling degree days 96 69  
Year to date cooling degree days 2313 1934  
Growing Degree Days 9 (Base 50)    
Moisture  
Dew Point 56 °F    
Average Humidity 91    
Maximum Humidity 96    
Minimum Humidity 84    
Precipitation  
Precipitation 0.12 in 0.14 in 3.94 in (1991)
Month to date precipitation 3.86 4.29  
Year to date precipitation 45.95 39.49  
Snow  
Snow 0.00 in - - ()
Month to date snowfall 0.0  
Since 1 July snowfall 0.0  
Since 1 September snowfall 0.0  
Snow Depth 0.00 in    
Sea Level Pressure  
Sea Level Pressure 30.03 in    
Wind  
Wind Speed 4 mph ()    
Max Wind Speed 12 mph    
Max Gust Speed 17 mph    
Visibility 5.7 miles    
Events Rain    
T = Trace of Precipitation, MM = Missing Value Source: Averaged Metar Reports

Daily Weather History Graph

Daily Weather History Graph

Search for Another Location

Airport or City:

Astronomy

Oct. 29, 2019 Rise Set
Actual Time 7:34 AM CDT 6:27 PM CDT
Civil Twilight 7:08 AM CDT 6:53 PM CDT
Nautical Twilight 6:39 AM CDT 7:22 PM CDT
Astronomical Twilight 6:09 AM CDT 7:52 PM CDT
Moon 9:06 AM CDT (10/29) 7:56 PM CDT (10/29)
Length of Visible Light 11h 44m
Length of Day
10h 53m
Waxing Crescent, 3% of the Moon is Illuminated
Oct 29
Waxing Crescent
Nov 4
First Quarter
Nov 12
Full
Nov 19
Last Quarter
Nov 26
New

Hourly Weather History & Observations

Time (CDT) Temp. Dew Point Humidity Pressure Visibility Wind Dir Wind Speed Gust Speed Precip Events Conditions
12:53 AM 57.9 °F 55.0 °F 90% 30.04 in 5.0 mi East 3.5 mph - N/A   Overcast
1:53 AM 57.9 °F 55.0 °F 90% 30.04 in 6.0 mi Calm Calm - N/A   Overcast
2:53 AM 57.9 °F 55.9 °F 93% 30.04 in 1.2 mi NE 3.5 mph - N/A   Overcast
3:22 AM 57.9 °F 55.0 °F 90% 30.04 in 1.8 mi East 3.5 mph - N/A   Overcast
3:31 AM 57.9 °F 55.0 °F 90% 30.05 in 2.0 mi Calm Calm - N/A   Overcast
3:50 AM 57.2 °F 55.4 °F 94% 30.04 in 1.5 mi East 3.5 mph - N/A   Overcast
3:53 AM 57.0 °F 55.9 °F 96% 30.04 in 1.5 mi East 3.5 mph - N/A   Overcast
4:07 AM 57.0 °F 55.9 °F 96% 30.04 in 1.8 mi Calm Calm - N/A   Overcast
4:14 AM 57.0 °F 55.0 °F 93% 30.04 in 2.5 mi East 3.5 mph - N/A   Overcast
4:25 AM 57.0 °F 55.0 °F 93% 30.04 in 3.0 mi East 4.6 mph - N/A   Overcast
4:39 AM 57.9 °F 55.0 °F 90% 30.05 in 5.0 mi ENE 3.5 mph - N/A   Overcast
4:50 AM 57.2 °F 55.4 °F 94% 30.05 in 6.0 mi East 3.5 mph - N/A   Overcast
4:53 AM 57.9 °F 55.0 °F 90% 30.05 in 6.0 mi Calm Calm - N/A   Overcast
5:31 AM 57.0 °F 55.0 °F 93% 30.06 in 4.0 mi East 4.6 mph - 0.00 in   Overcast
5:53 AM 57.0 °F 55.0 °F 93% 30.06 in 5.0 mi ENE 4.6 mph - 0.00 in   Overcast
6:07 AM 57.9 °F 55.0 °F 90% 30.07 in 5.0 mi Calm Calm - N/A   Overcast
6:23 AM 57.0 °F 55.0 °F 93% 30.06 in 2.0 mi East 4.6 mph - 0.00 in Rain Light Rain
6:48 AM 57.2 °F 55.4 °F 94% 30.06 in 3.0 mi ENE 3.5 mph - 0.00 in   Overcast
6:53 AM 57.0 °F 55.0 °F 93% 30.06 in 4.0 mi East 4.6 mph - 0.00 in   Overcast
7:33 AM 57.0 °F 55.0 °F 93% 30.07 in 2.5 mi East 4.6 mph - 0.00 in Rain Light Rain
7:40 AM 57.0 °F 55.0 °F 93% 30.07 in 3.0 mi East 4.6 mph - 0.00 in Rain Light Rain
8:20 AM 57.9 °F 55.0 °F 90% 30.08 in 1.8 mi ENE 5.8 mph - 0.00 in Rain Light Rain
8:41 AM 55.0 °F 53.1 °F 93% 30.08 in 1.8 mi NNE 4.6 mph - 0.00 in Rain Light Rain
8:53 AM 55.9 °F 53.1 °F 90% 30.08 in 2.0 mi Calm Calm - 0.00 in Rain Light Rain
9:14 AM 57.9 °F 55.0 °F 90% 30.08 in 2.5 mi East 5.8 mph - 0.00 in   Overcast
9:27 AM 57.9 °F 55.9 °F 93% 30.08 in 3.0 mi East 8.1 mph - 0.00 in   Overcast
9:53 AM 57.9 °F 55.9 °F 93% 30.07 in 7.0 mi East 8.1 mph - 0.00 in   Overcast
10:53 AM 59.0 °F 55.0 °F 87% 30.06 in 8.0 mi East 8.1 mph - N/A   Overcast
11:53 AM 57.9 °F 55.0 °F 90% 30.08 in 10.0 mi ENE 5.8 mph - N/A   Overcast
12:53 PM 59.0 °F 55.0 °F 87% 30.03 in 10.0 mi ENE 10.4 mph - N/A   Overcast
1:53 PM 60.1 °F 55.9 °F 86% 30.01 in 10.0 mi ENE 6.9 mph - N/A   Overcast
2:53 PM 61.0 °F 57.0 °F 87% 29.98 in 10.0 mi ENE 9.2 mph - N/A   Overcast
3:53 PM 61.0 °F 57.0 °F 87% 29.97 in 10.0 mi East 8.1 mph - N/A   Overcast
4:53 PM 61.0 °F 57.0 °F 87% 29.97 in 10.0 mi East 8.1 mph - 0.00 in   Overcast
5:53 PM 61.0 °F 57.0 °F 87% 29.96 in 7.0 mi ENE 5.8 mph - 0.01 in Rain Light Rain
6:53 PM 60.1 °F 57.0 °F 90% 29.97 in 10.0 mi East 6.9 mph - 0.00 in   Overcast
7:28 PM 60.1 °F 57.0 °F 90% 29.96 in 9.0 mi East 6.9 mph - N/A   Overcast
7:37 PM 60.1 °F 57.0 °F 90% 29.96 in 9.0 mi East 6.9 mph - N/A   Overcast
7:45 PM 60.1 °F 57.0 °F 90% 29.96 in 9.0 mi ENE 6.9 mph - N/A   Overcast
7:53 PM 60.1 °F 57.0 °F 90% 29.96 in 9.0 mi East 5.8 mph - N/A   Mostly Cloudy
8:53 PM 61.0 °F 57.0 °F 87% 29.97 in 9.0 mi East 6.9 mph - N/A   Overcast
9:53 PM 61.0 °F 57.0 °F 87% 29.97 in 10.0 mi East 8.1 mph - 0.00 in Rain Light Rain
10:33 PM 61.0 °F 57.0 °F 87% 29.98 in 10.0 mi East 9.2 mph - 0.00 in Rain Light Rain
10:53 PM 61.0 °F 57.9 °F 90% 29.99 in 7.0 mi East 6.9 mph - 0.00 in Rain Rain
11:53 PM 60.1 °F 57.0 °F 90% 29.96 in 10.0 mi East 8.1 mph - 0.00 in   Overcast